Location: Olsztyn
(53.7767°N, 20.4765°E)
Time: 17:18:03
(UTC+02:00)

Envisat - Visible Passes

Search period start: 30 September 2023 00:00
Search period end: 10 October 2023 00:00
Orbit: 763 x 764 km, 98.2° (Epoch: 29 September)

Date Brightness Start Highest point End Pass type
(mag) Time Alt. Az. Time Alt. Az. Time Alt. Az.
30 Sep 5.1 03:19:43 10° NE 03:23:43 23° E 03:27:42 10° SE visible
30 Sep 3.0 04:58:07 10° N 05:03:11 67° WNW 05:08:12 10° SSW visible
01 Oct 5.8 02:44:09 10° ENE 02:45:58 12° E 02:47:46 10° ESE visible
01 Oct 3.3 04:20:53 10° NNE 04:25:58 66° ESE 04:30:46 11° S visible
01 Oct 4.1 06:00:28 10° N 06:04:35 25° WNW 06:08:40 10° WSW visible
02 Oct 4.4 03:43:54 10° NNE 03:48:33 35° E 03:53:00 11° SSE visible
02 Oct 3.4 05:22:51 10° N 05:27:40 44° WNW 05:32:28 10° SW visible
03 Oct 5.4 03:07:26 10° NE 03:10:57 19° E 03:14:27 10° SE visible
03 Oct 2.9 04:45:28 10° NNE 04:50:36 82° WNW 04:55:24 11° SSW visible
04 Oct 3.7 04:08:19 10° NNE 04:13:18 53° E 04:17:38 14° S visible
04 Oct 3.9 05:47:41 10° N 05:52:05 30° WNW 05:56:27 10° WSW visible
05 Oct 4.8 03:31:27 10° NNE 03:35:50 28° E 03:39:51 11° SSE visible
05 Oct 3.1 05:10:09 10° N 05:15:07 54° WNW 05:20:00 10° SW visible
06 Oct 5.6 02:55:17 10° NE 02:58:09 15° E 03:01:00 10° ESE visible
06 Oct 3.0 04:32:50 10° NNE 04:37:57 82° ESE 04:42:14 15° SSW visible
06 Oct 4.3 06:12:39 10° N 06:16:24 21° NW 06:20:10 10° WSW visible
07 Oct 4.0 03:55:45 10° NNE 04:00:36 43° E 04:04:28 15° SSE visible
07 Oct 3.6 05:34:56 10° N 05:39:33 36° WNW 05:44:10 10° SW visible
08 Oct 5.1 03:19:03 10° NE 03:23:04 23° E 03:26:41 12° SE visible
08 Oct 2.9 04:57:28 10° N 05:02:32 66° WNW 05:06:50 14° SSW visible
09 Oct 5.8 02:43:28 10° ENE 02:45:18 12° E 02:47:08 10° ESE visible
09 Oct 3.3 04:20:13 10° NNE 04:25:19 67° ESE 04:29:03 18° S visible
09 Oct 4.1 05:59:48 10° N 06:03:55 25° WNW 06:08:01 10° WSW visible
